Hourly Data Report for July 06, 2020

TORONTO CITY
ONTARIO
Current Station Operator: ECCC - MSC

43°40'00.000" N
79°24'00.000" W
112.50 m
6158355
71508
XTO

Download Data

Hourly Data (July 2020)
Hourly Data Report for July 6, 2020
TIME
LST
Temp Definition
°C
Dew Point Definition
°C
Rel Hum Definition
%
Precip. Amount Definition
mm

Wind Dir Definition
10's deg

Wind Spd Definition
km/h
Visibility Definition
km
Stn Press Definition
kPa
Hmdx Definition


Wind Chill Definition


Weather Definition


00:00 24.5 14.2 53 0.0       100.22 28   LegendNANA
01:00 24.3 15.0 56 0.0       100.23 28   LegendNANA
02:00 24.5 14.7 54 0.0       100.22 28   LegendNANA
03:00 23.4 15.0 59 0.0       100.19 27   LegendNANA
04:00 24.2 14.8 56 0.0       100.22 28   LegendNANA
05:00 23.8 14.8 57 0.0       100.26 28   LegendNANA
06:00 23.7 15.4 60 0.0       100.29 28   LegendNANA
07:00 24.2 15.4 58 0.0       100.33 28   LegendNANA
08:00 25.1 15.3 55 0.0       100.35 29   LegendNANA
09:00 25.8 15.8 54 0.0       100.40 30   LegendNANA
10:00 26.9 15.5 50 0.0       100.42 31   LegendNANA
11:00 27.7 15.2 46 0.0       100.41 32   LegendNANA
12:00 28.3 14.6 43 0.0       100.40 32   LegendNANA
13:00 28.8 14.7 42 0.0       100.41 33   LegendNANA
14:00 29.4 12.9 36 0.0       100.38 32   LegendNANA
15:00 28.5 11.6 35 0.0       100.34 31   LegendNANA
16:00 28.2 11.6 36 0.2       100.27 30   LegendNANA
17:00 27.4 12.5 40 0.3       100.21 30   LegendNANA
18:00 27.2 11.3 37 0.0       100.22 29   LegendNANA
19:00 26.2 12.7 43 0.0       100.24 29   LegendNANA
20:00 25.6 14.2 49 0.0       100.25 29   LegendNANA
21:00 25.6 13.9 48 0.0       100.28 29   LegendNANA
22:00 25.4 14.2 50 0.0       100.25 29   LegendNANA
23:00 25.3 14.7 52 0.0       100.24 29   LegendNANA

Notes on Data Quality.

Legend

  • E = Estimated
  • M = Missing
  • NA = Not Available*
  • [empty] = Indicates an unobserved value
Date modified: